Showing default

LEO 1, 43113

Orbit data source: Space-Track

LEO 1, 43113 is a payload satellite owned by Telesat (Loral) (US) in SSO that was launched on Fri, 12 Jan 2018 UTC via a PSLV-XL launch vehicle from the Sirharikota (SRI). Payload-class satellites include a variety of spacecraft equipped with specific instruments for various scientific and technological missions. These include communications satellites like Starlink; space stations such as the ISS; scientific satellites like the Hubble; Earth observation satellites from companies like Planet Labs, Umbra, and HawkEye 360; GPS; miniature CubeSats for education and research; and military/defense satellites.

Loading next visibility...
Identifier
43113, 2018-004C
Orbit
SSO
Country
Flag of USUS
Related business
Manufacturer
SSTL (Astrium)
Mission
Partially operational Commercial Communications
Bus & Motor
SSTL-42, Unknown motor
Mass
~100 kg wet, ~100 kg dry
Launch date (UTC)
2018-01-12 (8 years ago)
Launch vehicle
PSLV-XL
Launch site
Sirharikota (SRI)
Object type
Payload
Rocket body
Debris
Shape & HBR
Box + 1 Dish, 0.5 m
Radar Cross Section
0.735 m², Medium (>0.1 m² and < 1m²)

Expand to show TLE details & history
Last TLE update: 1 day ago

TLE from 1 day ago
0 LEO 1
1 43113U 18004C   25306.40363060  .00003817  00000-0  27024-3 0  9990
2 43113  99.2549 190.2183 0357614  54.7526 308.6592 14.65977909404234
Epoch: 2025-11-02T09:41Z
TLE epoch observation values (Epoch: 2025-11-02T09:41:13.683Z)
Latitude
0.00001°
Longitude
2.99143°
Altitude
525.012 km
Speed
7.682 km/s
True Right ascension
12h 40m 52s
True Declination
0° 00' 00"
Sunlit
Object was in daylight at epoch
Visualization orbit readout
Latitude
Unknown
Longitude
Unknown
Altitude
Unknown
Speed
Unknown
Apparent Right ascension
Unknown
Apparent Declination
Unknown
Sunlit
N/A
Visualization observer readout
Local Sidereal Time
14:15:13
Azimuth
Unknown
Elevation
Unknown
Doppler factor
Unknown
Orbital elements
Apogee altitude
923.146 km
Perigee altitude
418.968 km
Semi-major axis
7,049.194 km
Eccentricity
0.03576
Inclination
99.2549°
RAAN
190.2183°
Arg. of periapsis
54.7526°
True anomaly
305.36921°
Mean anomaly
308.6592°
Eccentric anomaly
307.02332°
Mean motion
3.66719 °/min
Orbital period
98.17 mins
BSTAR
0.00027024
Loading maneuver chart data...
Computing Atmospheric mass density...

Documentation

Showing up to 5 results
|